AA2YS Weather Reports


Display with metric or nautical units.
time (UTC)temp
F
wind
direction
speed
MPH
gust
MPH
rain 1hr
in
rain 24hr
in
rain mn
in
humidity
%
barometer
mb
20260503045520 42 0.0 0.0 0.00 0.03 0.00 73 1014.0
20260503044520 42 0.0 0.0 0.00 0.03 0.00 73 1014.0
20260503043540 42 0.0 1.0 0.00 0.03 0.00 74 1014.1
20260503042520 42 0.0 0.0 0.00 0.03 0.00 73 1014.1
20260503041520 42 0.0 0.0 0.00 0.03 0.00 74 1014.1
20260503040520 43 0.0 0.0 0.00 0.04 0.00 74 1014.2
20260503035519 43 0.0 0.0 0.00 0.04 0.04 74 1014.1
20260503034539 43 0.0 1.0 0.00 0.04 0.04 73 1014.1
20260503033518 43 0.0 0.0 0.00 0.04 0.04 73 1014.1
20260503032518 43 0.0 2.0 0.00 0.04 0.04 73 1014.2
20260503030519 43 0.0 0.0 0.00 0.04 0.04 73 1014.3
20260503025519 43 0.0 0.0 0.00 0.04 0.04 73 1014.3
20260503024518 43 0.0 0.0 0.00 0.04 0.04 73 1014.4
20260503023519 43 0.0 0.0 0.00 0.04 0.04 73 1014.4
20260503022519 43 0.0 0.0 0.00 0.04 0.04 72 1014.4
20260503021518 43 0.0 0.0 0.00 0.04 0.04 72 1014.5
20260503020519 43 0.0 0.0 0.00 0.04 0.04 72 1014.6
20260503015518 43 0.0 2.0 0.00 0.04 0.04 72 1014.6
20260503014539 43 0.0 1.0 0.00 0.04 0.04 72 1014.5
20260503013518 43 0.0 0.0 0.00 0.04 0.04 72 1014.5
20260503012519 43 0.0 0.0 0.00 0.04 0.04 72 1014.4
20260503011518 43 0.0 3.0 0.00 0.04 0.04 72 1014.4
20260503010519 43 248 1.0 4.0 0.00 0.04 0.04 72 1014.3
20260503005518 44 0.0 0.0 0.00 0.04 0.04 72 1014.3
20260503004519 44 0.0 1.0 0.00 0.04 0.04 73 1014.2
20260503003519 44 0.0 2.0 0.00 0.04 0.04 72 1014.2
20260503002519 44 0.0 0.0 0.00 0.04 0.04 72 1014.1
20260503001519 44 0.0 0.0 0.00 0.04 0.04 71 1014.0
20260503000519 44 0.0 1.0 0.00 0.04 0.04 70 1014.0
20260502235518 44 0.0 1.0 0.00 0.04 0.04 70 1013.9
20260502234518 45 0.0 2.0 0.00 0.04 0.04 70 1013.9
20260502233539 45 0.0 1.0 0.00 0.04 0.04 70 1013.9
20260502232518 45 0.0 0.0 0.00 0.04 0.04 69 1013.8
20260502231519 45 248 1.0 3.0 0.00 0.04 0.04 69 1013.8
20260502230519 45 225 2.0 6.0 0.00 0.04 0.04 70 1013.7
20260502225518 45 203 1.0 5.0 0.01 0.04 0.04 70 1013.7
20260502224539 45 203 1.0 3.0 0.01 0.04 0.04 70 1013.7
20260502223518 45 203 2.0 6.0 0.01 0.04 0.04 70 1013.6
20260502222519 45 0.0 0.0 0.01 0.04 0.04 73 1013.6
20260502221518 45 0.0 0.0 0.01 0.05 0.04 74 1013.6
20260502220519 45 0.0 0.0 0.01 0.05 0.04 74 1013.6
20260502215519 45 0.0 0.0 0.01 0.04 0.03 73 1013.6
20260502214519 45 0.0 0.0 0.02 0.05 0.03 73 1013.7
20260502213518 45 0.0 0.0 0.02 0.05 0.03 74 1013.6
20260502212519 45 0.0 1.0 0.02 0.05 0.03 72 1013.6
20260502211538 46 0.0 2.0 0.02 0.06 0.03 71 1013.6
20260502210518 46 0.0 0.0 0.02 0.06 0.03 67 1013.5
20260502205518 46 0.0 0.0 0.01 0.05 0.02 66 1013.5
20260502204518 47 248 2.0 5.0 0.00 0.04 0.01 64 1013.6
20260502203518 47 0.0 3.0 0.00 0.04 0.01 62 1013.5
20260502202518 47 0.0 3.0 0.00 0.04 0.01 63 1013.5
20260502201519 47 45 1.0 6.0 0.00 0.05 0.01 62 1013.6
20260502200519 47 248 1.0 3.0 0.00 0.05 0.01 61 1013.6
20260502195518 47 315 1.0 9.0 0.00 0.05 0.01 61 1013.8
20260502194538 48 293 1.0 7.0 0.00 0.05 0.01 60 1013.8
20260502193519 48 23 1.0 5.0 0.00 0.05 0.01 59 1013.8
20260502192518 48 248 1.0 5.0 0.00 0.05 0.01 58 1013.8
20260502191518 48 248 1.0 5.0 0.00 0.05 0.01 55 1013.8
20260502190519 49 203 2.0 10.0 0.00 0.05 0.01 53 1013.9
20260502185538 49 248 1.0 6.0 0.00 0.05 0.01 53 1013.9
20260502184558 49 0 1.0 7.0 0.00 0.05 0.01 54 1013.8
20260502183518 50 23 1.0 4.0 0.00 0.05 0.01 52 1013.8
20260502182518 50 158 1.0 6.0 0.00 0.05 0.01 52 1013.7
20260502181518 50 23 1.0 4.0 0.00 0.05 0.01 51 1013.8
20260502180518 51 270 1.0 8.0 0.00 0.05 0.01 49 1013.7
20260502170518 51 248 3.0 11.0 0.00 0.05 0.01 47 1013.5
20260502163518 50 225 3.0 10.0 0.00 0.05 0.01 50 1013.7
20260502162538 50 225 4.0 8.0 0.00 0.05 0.01 52 1013.8
20260502161519 50 270 2.0 6.0 0.00 0.05 0.01 49 1013.7
20260502160518 50 203 4.0 10.0 0.00 0.05 0.01 51 1013.7
20260502151518 48 225 2.0 6.0 0.00 0.05 0.01 58 1014.0
20260502150518 48 225 1.0 4.0 0.00 0.05 0.01 61 1014.0
20260502130518 41 225 2.0 5.0 0.00 0.05 0.01 81 1014.6
20260502123518 39 203 2.0 5.0 0.00 0.05 0.01 86 1014.9
20260502122518 39 225 2.0 6.0 0.00 0.05 0.01 88 1014.9
20260502121518 38 270 1.0 7.0 0.00 0.05 0.01 89 1014.9
20260502120518 38 248 3.0 7.0 0.00 0.05 0.01 90 1014.9
20260502115518 37 270 2.0 6.0 0.00 0.05 0.01 91 1015.0
20260502114518 37 248 1.0 5.0 0.00 0.05 0.01 91 1014.9
20260502113518 37 225 2.0 5.0 0.00 0.05 0.01 91 1014.9
20260502112518 36 225 1.0 7.0 0.00 0.05 0.01 91 1014.9
20260502111519 36 0.0 3.0 0.00 0.05 0.01 91 1014.9
20260502110518 36 270 1.0 3.0 0.00 0.05 0.01 90 1014.9
20260502105518 36 0.0 0.0 0.00 0.05 0.01 89 1014.8
20260502104538 36 0.0 0.0 0.00 0.05 0.01 89 1014.7
20260502103518 36 0.0 0.0 0.00 0.05 0.01 89 1014.5
20260502102538 36 0.0 0.0 0.00 0.05 0.01 89 1014.4
20260502101518 36 0.0 0.0 0.00 0.05 0.01 89 1014.3
20260502100518 37 0.0 0.0 0.00 0.05 0.01 89 1014.2
20260502091518 37 0.0 3.0 0.00 0.05 0.01 88 1014.0
20260502090518 38 0.0 0.0 0.00 0.05 0.01 88 1013.8
20260502071518 41 0.0 3.0 0.00 0.05 0.01 90 1012.8
20260502070518 41 0.0 0.0 0.00 0.05 0.01 90 1012.6
20260502065518 42 0.0 0.0 0.00 0.05 0.01 90 1012.7
20260502064518 42 0.0 0.0 0.00 0.05 0.01 90 1012.7
20260502063618 42 0.0 0.0 0.00 0.05 0.01 89 1012.8
20260502062518 42 0.0 0.0 0.00 0.05 0.01 89 1012.8
20260502061518 42 0.0 0.0 0.00 0.05 0.01 89 1012.9
20260502060518 42 0.0 0.0 0.00 0.05 0.01 89 1012.9
20260502055518 42 0.0 0.0 0.00 0.05 0.01 89 1013.0
20260502054518 42 0.0 0.0 0.00 0.05 0.01 89 1013.0
20260502053518 42 0.0 0.0 0.00 0.05 0.01 89 1012.9
20260502052518 43 0.0 0.0 0.00 0.05 0.01 89 1012.9
20260502051518 43 0.0 0.0 0.00 0.05 0.01 89 1013.0
20260502050518 43 0.0 0.0 0.01 0.05 0.01 89 1013.0